Saint Louis, MO

11:48 PM CDT on September 29, 2016 (GMT -0500)
Lambert-Saint Louis International

Weather History for KSTL - June, 2014

Change the Weather History Date:

Monday, June 16, 2014

  Actual Average Record
Temperature  
Mean Temperature 84 °F 76 °F  
Max Temperature 92 °F 86 °F 100 °F (1952)
Min Temperature 75 °F 67 °F 46 °F (1961)
Degree Days  
Heating Degree Days 0 0  
Month to date heating degree days 0 3  
Since 1 June heating degree days 0 3  
Since 1 July heating degree days 5027 4533  
Cooling Degree Days 19 11  
Month to date cooling degree days 153 148  
Year to date cooling degree days 415 322  
Since 1 June cooling degree days 153 148  
Growing Degree Days 33 (Base 50)    
Moisture  
Dew Point 68 °F    
Average Humidity 63    
Maximum Humidity 79    
Minimum Humidity 46    
Precipitation  
Precipitation T in 0.14 in 4.50 in (1888)
Month to date precipitation 3.01 2.40  
Year to date precipitation 20.07 18.77  
Snow  
Snow 0.00 in 0.00 in 0.00 in (2015)
Month to date snowfall 0.0 0.0  
Since 1 June snowfall 0.0 0.0  
Since 1 July snowfall 28.8 17.7  
Snow Depth 0.00 in    
Sea Level Pressure  
Sea Level Pressure 29.98 in    
Wind  
Wind Speed 10 mph (South)    
Max Wind Speed 21 mph    
Max Gust Speed 29 mph    
Visibility 10 miles    
Events      
T = Trace of Precipitation, MM = Missing Value Source: NWS Daily Summary

Daily Weather History Graph

Daily Weather History Graph

Search for Another Location

Airport or City:

Trip Planner

Search our weather history database for the weather conditions in past years. The results will help you decide how hot, cold, wet, or windy it might be!

Date:

Astronomy

Jun. 16, 2014 Rise Set
Actual Time 5:36 AM CDT 8:28 PM CDT
Civil Twilight 5:04 AM CDT 9:00 PM CDT
Nautical Twilight 4:23 AM CDT 9:40 PM CDT
Astronomical Twilight 3:37 AM CDT 10:26 PM CDT
Moon 11:22 PM CDT (6/16) 9:38 AM CDT (6/16)
Length of Visible Light 15h 56m
Length of Day
14h 52m
Waning Gibbous, 83% of the Moon is Illuminated
Jun 16
Waning Gibbous
Jun 19
Last Quarter
Jun 27
New
Jul 5
First Quarter
Jul 12
Full

Hourly Weather History & Observations

Time (CDT) Temp. Heat Index Dew Point Humidity Pressure Visibility Wind Dir Wind Speed Gust Speed Precip Events Conditions
12:51 AM 79.0 °F - 64.9 °F 62% 29.99 in 10.0 mi South 4.6 mph - N/A   Mostly Cloudy
1:51 AM 78.1 °F - 66.0 °F 66% 29.99 in 10.0 mi SSW 5.8 mph - N/A   Mostly Cloudy
3:51 AM 77.0 °F - 66.9 °F 71% 29.99 in 10.0 mi South 3.5 mph - N/A   Mostly Cloudy
4:51 AM 75.9 °F - 66.9 °F 74% 30.01 in 10.0 mi South 3.5 mph - N/A   Mostly Cloudy
5:51 AM 75.0 °F - 66.9 °F 76% 30.02 in 10.0 mi Variable 3.5 mph - N/A   Mostly Cloudy
6:51 AM 75.9 °F - 68.0 °F 76% 30.03 in 10.0 mi South 5.8 mph - N/A   Mostly Cloudy
7:51 AM 79.0 °F - 69.1 °F 72% 30.04 in 10.0 mi SSW 8.1 mph - N/A   Mostly Cloudy
8:51 AM 80.1 °F 82.9 °F 69.1 °F 69% 30.05 in 10.0 mi SSW 5.8 mph - N/A   Mostly Cloudy
9:51 AM 80.6 °F 83.9 °F 69.8 °F 70% 30.09 in 10.0 mi SSE 4.6 mph - N/A   Mostly Cloudy
10:51 AM 82.9 °F 88.0 °F 72.0 °F 69% 30.04 in 10.0 mi ESE 8.1 mph - 0.00 in   Scattered Clouds
11:51 AM 88.0 °F 93.8 °F 71.1 °F 57% 30.02 in 10.0 mi South 10.4 mph - N/A   Scattered Clouds
12:51 PM 88.0 °F 92.9 °F 70.0 °F 55% 30.00 in 10.0 mi SSW 11.5 mph - N/A   Mostly Cloudy
1:51 PM 90.0 °F 94.5 °F 69.1 °F 50% 29.98 in 10.0 mi SSW 11.5 mph 17.3 mph N/A   Scattered Clouds
2:51 PM 91.0 °F 95.2 °F 68.0 °F 47% 29.96 in 10.0 mi SSW 12.7 mph 20.7 mph N/A   Scattered Clouds
3:51 PM 91.9 °F 95.9 °F 68.0 °F 45% 29.96 in 10.0 mi South 11.5 mph - N/A   Scattered Clouds
4:51 PM 91.9 °F 95.9 °F 68.0 °F 45% 29.94 in 10.0 mi South 15.0 mph 26.5 mph N/A   Scattered Clouds
5:51 PM 90.0 °F 92.8 °F 66.9 °F 46% 29.92 in 10.0 mi South 12.7 mph - N/A   Scattered Clouds
6:51 PM 90.0 °F 92.4 °F 66.0 °F 45% 29.91 in 10.0 mi South 16.1 mph 23.0 mph N/A   Scattered Clouds
7:51 PM 88.0 °F 89.3 °F 64.0 °F 45% 29.90 in 10.0 mi South 18.4 mph 24.2 mph N/A   Partly Cloudy
8:51 PM 86.0 °F 87.6 °F 64.9 °F 49% 29.90 in 10.0 mi South 13.8 mph - N/A   Scattered Clouds
9:51 PM 84.0 °F 86.3 °F 66.0 °F 55% 29.90 in 10.0 mi South 12.7 mph 20.7 mph N/A   Scattered Clouds
10:51 PM 82.9 °F 85.4 °F 66.9 °F 58% 29.89 in 10.0 mi South 15.0 mph 25.3 mph N/A   Clear
11:51 PM 82.0 °F 84.9 °F 68.0 °F 62% 29.88 in 10.0 mi South 18.4 mph 25.3 mph N/A   Clear